Regional Weather Roundup
Issued by NWS

Home | Current Version | Previous Version | Text Only | Print | Product List | Glossary On
Versions: 1 2 3 4 5 6 7 8 9 10 11 12 13 14 15 16 17 18 19 20 21 22 23 24 25 26 27 28 29 30 31 32 33 34 35 36 37 38 39 40 41 42 43 44 45 46 47 48 49 50
000
ASUS43 KMPX 131410
RWRMN
WEATHER ROUNDUP FOR MINNESOTA
NATIONAL WEATHER SERVICE TWIN CITIES/CHANHASSEN MN
800 AM CST SAT FEB 13 2016


NOTE: "FAIR" INDICATES FEW OR NO CLOUDS BELOW 12,000 FEET WITH NO
SIGNIFICANT WEATHER AND/OR OBSTRUCTIONS TO VISIBILITY. N/A MEANS
CURRENT SKY AND/OR WEATHER CONDITIONS ARE NOT AVAILABLE.

MNZ060>063-068>070-131500-
   Twin Cities Metro

CITY           SKY/WX    TMP DP  RH WIND       PRES   REMARKS
TWIN CITIES    PTCLDY    -6 -13  71 W5        30.64S WCI -17
ST PAUL        CLOUDY    -5 -13  68 NW3       30.67R
CRYSTAL        PTCLDY    -8 -14  74 W3        30.63S
BLAINE         CLEAR     -8 -11  84 CALM      30.62S
LAKEVILLE      PTCLDY   -11 -15  84 CALM      30.63F
EDEN PRAIRIE   PTCLDY    -7 -14  71 NW3       30.63S
SOUTH ST PAUL  PTCLDY    -6 -14  71 CALM      30.65S
LAKE ELMO      FAIR     -11 -17  77 CALM      30.63F
$$
MNZ001>005-007-008-013>017-022>024-027-028-131500-
   Northwest Minnesota

CITY           SKY/WX    TMP DP  RH WIND       PRES   REMARKS
BEMIDJI        PTCLDY   -25 -31  76 CALM      30.53S
HALLOCK        PTCLDY   -15 -18  84 SE7       30.55R WCI -31
ROSEAU         CLOUDY   -24 -29  76 S5        30.55F WCI -38
WARROAD        CLOUDY   -26 -33  68 SW3       30.54S
THIEF RVR FALL CLOUDY   -17 -26  63 SE6       30.54F WCI -31
CROOKSTON      CLOUDY   -13 -18  77 SE8       30.57F WCI -30
FOSSTON          N/A    -24 -29  76 E3        30.53F
DETROIT LAKES  CLOUDY   -13 -17  84 SE5       30.53F WCI -25
MOORHEAD       CLOUDY    -6 -11  77 SE9       30.56F WCI -22
PARK RAPIDS    CLOUDY   -19 -25  73 CALM      30.52F
MAHNOMEN       FAIR     -18 -23  78 S6        30.53F WCI -33
$$
MNZ006-009>011-018-025>026-131500-
   North Central Minnesota

CITY           SKY/WX    TMP DP  RH WIND       PRES   REMARKS
BAUDETTE       CLOUDY   -28 -33  77 CALM      30.52F
FLAG ISLAND    CLOUDY   -26 -31  75 CALM      30.53S
INTL FALLS     CLOUDY   -28 -33  77 CALM      30.54S
WASKISH        CLOUDY   -24 -29  76 CALM      30.54S
LONGVILLE      PTCLDY   -24 -29  76 CALM      30.55S
GRAND RAPIDS   PTCLDY   -24 N/A N/A CALM      30.53S
CRANE LAKE     CLOUDY   -29 -36  68 CALM      30.58R
ORR            CLOUDY   -24 -33  62 CALM      30.50S
COOK           CLOUDY   -29 -35  75 CALM      30.53S
WALKER         FAIR     -25 -31  73 CALM      30.54S
$$
MNZ012-019>021-037-131500-
   Northeast Minnesota

CITY           SKY/WX    TMP DP  RH WIND       PRES   REMARKS
DULUTH         CLOUDY   -16 -22  74 NW6       30.51R WCI -31
ELY            CLOUDY   -26 -33  68 CALM      30.52R
HIBBING        CLOUDY   -26 -31  77 NW7       30.53S WCI -44
EVELETH        CLOUDY   -22 -29  69 CALM      30.53S
DULUTH HARBOR  CLOUDY    -9 -18  64 W9        30.65R WCI -27
TWO HARBORS    CLOUDY   -11 -20  64 NW3       30.52R
SILVER BAY     CLEAR    -15 -20  76 CALM      30.50S
GRAND MARAIS     N/A     -8 -16  67 VRB6      30.54S WCI -21
G MARAIS ARPRT CLEAR    -17 -26  63 NW13G21   30.38R WCI -39
$$
MNZ029>031-032-039>041-046>048-054>057-064-131500-
   West Central Minnesota

CITY           SKY/WX    TMP DP  RH WIND       PRES   REMARKS
FERGUS FALLS   CLOUDY    -8 -13  77 SE7       30.59F WCI -22
WHEATON        CLOUDY     0  -6  78 SE9       30.58F WCI -16
MORRIS         CLOUDY    -4  -9  77 SE10      30.56F WCI -21
ALEXANDRIA     CLOUDY   -10 -15  78 SE6       30.55S WCI -23
ELBOW LAKE     FAIR      -6 -12  75 SE8       30.56F WCI -22
WADENA         CLOUDY   -17 -22  76 CALM      30.54R
GLENWOOD       CLOUDY   -11 -15  84 SE5       30.57S WCI -23
APPLETON       CLOUDY    -2  -9  71 SE8       30.58F WCI -17
BENSON         CLOUDY    -4 -11  71 CALM      30.58F
ORTONVILLE     CLOUDY    -2  -9  71 SE7       30.56F WCI -16
MADISON        CLOUDY    -2  -9  71 SE7       30.58F WCI -16
WILLMAR        FAIR      -4  -9  77 E6        30.59F WCI -16
$$
MNZ033>034-036-042>043-049>051-058-059-131500-
   Central Minnesota

CITY           SKY/WX    TMP DP  RH WIND       PRES   REMARKS
ST CLOUD       PTCLDY   -12 -17  78 CALM      30.61F
SAUK CENTRE    FAIR     -14 -18  82 CALM      30.59R
PAYNESVILLE    PTCLDY   -10 -15  81 CALM      30.60S
AITKIN         CLOUDY   -18 -29  57 CALM      30.55S
PINE RIVER     PTCLDY   -24 -29  76 CALM      30.57S
BRAINERD       PTCLDY   -21 -25  81 CALM      30.57R
STAPLES        CLOUDY   -18 -24  76 CALM      30.55F
LONG PRAIRIE   FAIR     -17 -22  76 CALM      30.57R
LITTLE FALLS   PTCLDY   -17 -24  70 CALM      30.60F
LITCHFIELD     CLOUDY    -8 -11  84 CALM      30.60S
BUFFALO        PTCLDY   -10 -15  78 CALM      30.63S
MAPLE LAKE     PTCLDY   -10 -14  82 CALM      30.62S
$$
MNZ037-044-045-052-053-131500-
   East Central Minnesota

CITY           SKY/WX    TMP DP  RH WIND       PRES   REMARKS
PRINCETON      PTCLDY   -13 -18  77 CALM      30.61S
MORA           PTCLDY    -9 -17  70 CALM      30.62S
CAMBRIDGE      PTCLDY   -11 -18  70 CALM      30.61S
MOOSE LAKE     PTCLDY   -18 -24  76 CALM      30.57S
HINCKLEY       FAIR     -13 -17  84 CALM      30.60S
CLOQUET        CLOUDY   -17 -24  70 NW3       30.53R
MCGREGOR       CLOUDY   -15 -18  84 CALM      30.57R
$$
MNZ071>073-080-081-089-090-097-098-131500-
   Southwest Minnesota

CITY           SKY/WX    TMP DP  RH WIND       PRES   REMARKS
MONTEVIDEO     CLOUDY    -4  -9  77 S6        30.61F WCI -16
GRANITE FALLS  CLOUDY    -2  -8  75 SE5       30.62S WCI -12
CANBY          CLOUDY     1  -5  74 E7        30.58S WCI -11
MARSHALL       CLOUDY    -2  -9  72 SE5       30.60R WCI -12
REDWOOD FALLS  CLOUDY    -3  -9  75 CALM      30.62R
OLIVIA         CLOUDY     0  -9  65 SE5       30.60S WCI -10
PIPESTONE      CLOUDY     0 -11  60 SE10      30.50R WCI -17
WINDOM         CLOUDY    -2  -9  71 CALM      30.56R
WORTHINGTON    CLOUDY    -4  -9  77 SE6       30.55S WCI -16
JACKSON        CLOUDY    -2  -9  71 E3        30.56S
TRACY          CLOUDY    -1  -7  76 SE3       30.57S
SLAYTON        PTCLDY    -3  -8  78 E6        30.54R WCI -15
$$
MNZ065>067-074>077-082>085-091>093-131500-
   South Central Minnesota

CITY           SKY/WX    TMP DP  RH WIND       PRES   REMARKS
MANKATO        CLOUDY    -6  -9  84 CALM      30.62R
NEW ULM        CLOUDY    -4 -13  65 CALM      30.62R
ST JAMES       CLOUDY    -2  -8  78 CALM      30.62S
FAIRMONT       CLOUDY    -2  -9  71 N3        30.59R
GLENCOE        CLOUDY    -6 -11  78 CALM      30.64R
FARIBAULT      PTCLDY   -15 -18  84 NE1       30.61F
OWATONNA       PTCLDY    -9 -15  77 CALM      30.60S
WASECA         CLOUDY    -6 -13  71 CALM      30.63R
ALBERT LEA     CLOUDY    -6 -11  77 CALM      30.59R
$$
MNZ078>079-086>088-094>096-131500-
   Southeast Minnesota

CITY           SKY/WX    TMP DP  RH WIND       PRES   REMARKS
ROCHESTER      PTCLDY    -9 -15  75 NW6       30.57S WCI -22
RED WING       CLOUDY   -11 -18  70 N3        30.65R
STANTON        CLOUDY   -11 -18  73 CALM      30.63S
DODGE CENTER   PTCLDY   N/A N/A N/A N3        30.57F
WINONA         CLOUDY    -4 -13  65 NW6       30.67R WCI -16
AUSTIN         PTCLDY    -8 -11  84 CALM      30.58S
PRESTON        PTCLDY   -10 -16  72 N5        30.58R WCI -21
$$
ABBREVIATIONS USED IN REMARKS
   TC - TEMPERATURES IN CELSIUS
  WCI - WIND CHILL INDEX
   HX - HEAT INDEX
  VSB - VISIBILITY
$$



USA.gov is the U.S. government's official web portal to all federal, state and local government web resources and services.